Location: 22
(39.7117°N, 89.5929°W)
Time: 17:56:27
(UTC-05:00)

Envisat - Visible Passes

Search period start: 18 May 2024 00:00
Search period end: 28 May 2024 00:00
Orbit: 762 x 764 km, 98.3° (Epoch: 18 May)

Date Brightness Start Highest point End Pass type
(mag) Time Alt. Az. Time Alt. Az. Time Alt. Az.
18 May 5.4 03:07:07 10° NE 03:10:22 17° E 03:13:35 10° SE visible
18 May 3.2 04:44:42 10° N 04:49:38 53° WNW 04:54:32 10° SSW visible
19 May 3.3 04:07:16 10° NNE 04:12:20 67° ESE 04:17:18 10° S visible
20 May 4.6 03:30:27 10° NE 03:34:50 29° E 03:39:12 10° SSE visible
21 May 5.5 02:55:04 10° ENE 02:57:08 12° E 02:59:12 10° ESE visible
21 May 3.0 04:31:31 10° N 04:36:36 71° WNW 04:41:37 10° SSW visible
22 May 3.7 03:54:18 10° NNE 03:59:14 50° E 04:04:08 10° S visible
23 May 5.0 03:17:46 10° NE 03:21:39 22° E 03:25:31 10° SE visible
23 May 3.6 04:56:00 10° N 05:00:45 41° WNW 05:05:28 10° SW visible
24 May 3.0 04:18:25 10° NNE 04:23:30 87° E 04:28:34 10° SSW visible
25 May 4.2 03:41:22 10° NNE 03:46:04 37° E 03:50:45 10° SSE visible
26 May 5.4 03:05:17 10° NE 03:08:26 16° E 03:11:34 10° SE visible
26 May 3.2 04:42:46 10° N 04:47:43 55° WNW 04:52:38 10° SSW visible
27 May 3.3 04:05:21 10° NNE 04:10:24 65° ESE 04:15:26 10° S visible
